Regional Weather Roundup
Issued by NWS

Home | Current Version | Previous Version | Graphics & Text | Print | Product List | Glossary On
Versions: 1 2 3 4 5 6 7 8 9 10 11 12 13 14 15 16 17 18 19 20 21 22 23 24 25 26 27 28 29 30 31 32 33 34 35 36 37 38 39 40 41 42 43 44 45 46 47 48 49 50
000
ASUS43 KTOP 240008
RWRKS

WEATHER ROUNDUP FOR KANSAS
NATIONAL WEATHER SERVICE GOODLAND KS
700 PM CDT SAT JUL 23 2016

NOTE:  "FAIR" INDICATES FEW OR NO CLOUDS BELOW 12,000 FEET WITH NO
SIGNIFICANT WEATHER AND/OR OBSTRUCTIONS TO VISIBILITY.

KSZ001>006-013>018-027>032-041>047-240100-
NORTHWEST KANSAS

CITY           SKY/WX    TMP DP  RH WIND       PRES   REMARKS
GOODLAND       SUNNY     99  40  13 E14       29.91S
6HR MIN TEMP:  94; 6HR MAX TEMP: 102;

HAYS           SUNNY    102  57  22 S16       29.78S HX 101
HILL CITY      SUNNY    100  63  29 N6        29.79F HX 102
6HR MIN TEMP:  94; 6HR MAX TEMP: 102;

RUSSELL        SUNNY    102  56  21 S17       29.78F HX 101
6HR MIN TEMP:  95; 6HR MAX TEMP: 105;

$$

KSZ061>065-074>080-084>089-240100-
SOUTHWEST KANSAS

CITY           SKY/WX    TMP DP  RH WIND       PRES   REMARKS
DODGE CITY     SUNNY     98  55  23 S14       29.84S HX  96
6HR MIN TEMP:  97; 6HR MAX TEMP: 101;

ELKHART          N/A     94  57  28 S10         N/A
GARDEN CITY    SUNNY     95  66  38 S8        29.83F HX  98
6HR MIN TEMP:  95; 6HR MAX TEMP:  99;

GREAT BEND     SUNNY    100  61  27 S10       29.79F HX 101
LIBERAL        SUNNY    100  54  20 S17       29.86F HX  98
PRATT          SUNNY     97  55  24 SW14      29.82F HX  95
6HR MIN TEMP:  96; 6HR MAX TEMP: 102;

$$

KSZ066>073-081>083-090>101-240100-
SOUTHEAST KANSAS

CITY           SKY/WX    TMP DP  RH WIND       PRES   REMARKS
CHANUTE        SUNNY     94  71  47 S9        29.86S HX 101
6HR MIN TEMP:  93; 6HR MAX TEMP:  96;

COFFEYVILLE    SUNNY     98  69  38 S9        29.85S HX 104
6HR MIN TEMP:  97; 6HR MAX TEMP: 101;

HUTCHINSON     CLOUDY    99  65  32 SE12      29.81F HX 102
6HR MIN TEMP:  97; 6HR MAX TEMP: 104;

MEDICINE LODGE   N/A    101  56  22 S14       29.79F HX 100
NEWTON         CLOUDY    94  70  45 SE14      29.83F HX 100
PARSONS        SUNNY     94  72  48 S5        29.87S HX 102
6HR MIN TEMP:  94; 6HR MAX TEMP:  98;

WICHITA INTL   PTSUNNY   99  63  30 S12       29.80F HX 101
6HR MIN TEMP:  99; 6HR MAX TEMP: 105;

WICHITA JABRA  CLOUDY    95  70  44 SE9       29.82F HX 101
6HR MIN TEMP:  95; 6HR MAX TEMP: 100;

WICHITA MCCONL PTSUNNY   97  64  33 S14       29.82F HX  99
WINFIELD       SUNNY     96  67  38 SE18G28   29.83F HX 100
6HR MIN TEMP:  96; 6HR MAX TEMP: 102;

$$

KSZ007>012-019>026-033>040-048>060-102>105-240100-
NORTHEAST KANSAS

CITY           SKY/WX    TMP DP  RH WIND       PRES   REMARKS
CONCORDIA      SUNNY     92  66  42 S14       29.78F
6HR MIN TEMP:  89; 6HR MAX TEMP:  98;

EMPORIA        CLOUDY    92  72  51 SE13      29.84F HX  99
6HR MIN TEMP:  91; 6HR MAX TEMP:  98;

LAWRENCE       CLOUDY    92  76  59 S9        29.85F HX 104
6HR MIN TEMP:  90; 6HR MAX TEMP:  95;

MANHATTAN      SUNNY     94  71  47 S13       29.80F HX 101
6HR MIN TEMP:  94; 6HR MAX TEMP: 100;

MARYSVILLE     SUNNY     93  72  49 S14G20    29.80F HX 100
OLATHE IND     CLOUDY    91  75  59 S6        29.87F HX 101
6HR MIN TEMP:  90; 6HR MAX TEMP:  94;

OLATHE EXE     CLOUDY    89  72  56 S3        29.87F HX  96
6HR MIN TEMP:  88; 6HR MAX TEMP:  92;

SALINA         MOSUNNY  100  63  29 SE13      29.78F HX 102
6HR MIN TEMP:  97; 6HR MAX TEMP: 101;

TOPEKA BILLARD PTSUNNY   90  75  61 SE7       29.83F HX 100
6HR MIN TEMP:  89; 6HR MAX TEMP:  97;

TOPEKA FORBES  MOSUNNY   94  75  54 SE8       29.85F HX 105
6HR MIN TEMP:  92; 6HR MAX TEMP:  98;

$$




USA.gov is the U.S. government's official web portal to all federal, state and local government web resources and services.